Flag Weather past 2 weeks in Tangier, Morocco

Now
79 °F

Passing clouds.


Feels Like: 80 °F
Forecast: 68 / 78 °F
Wind: 21 mph from East

Location: Tanger Aerodrome

Current Time: Oct 30, 2014 at 1:10:51 PM

Latest Report: Oct 30, 2014 at 12:30 PM


Visibility: N/A

Pressure: 30.04 "Hg

Humidity: 48%

Dew point: 57 °F

Location of TangierLocation

Historic Weather in Tangier — Graph

°F

Tangier temperature yesterday

Maximum temperature yesterday: 79 °F (at 11:30 AM)
Minimum temperature yesterday: 68 °F (at 3:30 AM)
Average temperature yesterday: 72 °F

Past Weeks' High & Low Weather Summary

 TemperatureHumidityPressure
High97 °F (Oct 22, 1:30 PM)94% (Oct 15, 11:30 PM)30.21 "Hg (Oct 15, 11:30 PM)
Low59 °F (Oct 17, 6:30 AM)13% (Oct 22, 1:00 PM)29.86 "Hg (Oct 28, 2:00 PM)
Average72 °F63%30.02 "Hg
* Reported Oct 15 1:00 PM — Oct 30 12:00 Noon, Tangier, Weather by CustomWeather, © 2014

Note: Actual official high and low records may vary slightly from our data, if they occured in-between our weather recording intervals... More about our weather records

Advertising

Tangier weather history for previous 24 hours

 ConditionsComfort  
Time TempWeatherWind HumidityBarometerVisibility
12:00 PM
Oct 30
79 °FPassing clouds.20 mph51%30.04 "HgN/A
11:30 AM79 °FPassing clouds.22 mph51%30.04 "HgN/A
11:00 AM77 °FPassing clouds.21 mph54%30.04 "HgN/A
10:30 AM77 °FPassing clouds.20 mph54%30.07 "HgN/A
10:00 AM75 °FPassing clouds.21 mph57%30.04 "HgN/A
9:30 AM75 °FPassing clouds.21 mph57%30.04 "HgN/A
9:00 AM73 °FSunny.21 mph61%30.04 "Hg10 mi
8:30 AM72 °FSunny.20 mph65%30.04 "Hg10 mi
8:00 AM70 °FPassing clouds.17 mph69%30.04 "Hg5 mi
7:30 AM70 °FBroken clouds.18 mph69%30.04 "Hg5 mi
7:00 AM68 °FBroken clouds.17 mph73%30.01 "Hg5 mi
6:30 AM68 °FBroken clouds.20 mph73%30.01 "Hg2 mi
6:00 AM68 °FBroken clouds.21 mph73%30.01 "Hg5 mi
5:30 AM70 °FPartly cloudy.21 mph69%30.01 "Hg2 mi
5:00 AM70 °FPartly cloudy.22 mph69%30.01 "Hg5 mi
4:30 AM70 °FPartly cloudy.20 mph69%29.98 "Hg2 mi
4:00 AM70 °FPartly cloudy.22 mph69%29.98 "Hg2 mi
3:30 AM70 °FPartly cloudy.21 mph69%29.98 "Hg3 mi
3:00 AM70 °FPartly cloudy.21 mph69%29.98 "Hg3 mi
2:30 AM70 °FPartly cloudy.25 mph69%29.98 "Hg3 mi
2:00 AM70 °FPartly cloudy.22 mph69%29.98 "Hg4 mi
1:30 AM70 °FPartly cloudy.21 mph69%29.98 "HgN/A
1:00 AM70 °FPartly cloudy.18 mph69%29.98 "HgN/A
12:30 AM70 °FPartly cloudy.20 mph69%29.98 "HgN/A
12:00 AM70 °FPartly cloudy.18 mph69%29.98 "HgN/A
11:30 PM
Oct 29
70 °FPartly cloudy.21 mph64%29.98 "HgN/A
11:00 PM70 °FPartly cloudy.21 mph64%29.98 "HgN/A
10:30 PM70 °FPartly cloudy.22 mph64%29.98 "HgN/A
10:00 PM70 °FPartly cloudy.21 mph64%29.98 "HgN/A
9:30 PM70 °FPartly cloudy.25 mph64%29.98 "HgN/A
9:00 PM70 °FPartly cloudy.24 mph69%29.95 "HgN/A
8:30 PM70 °FMild.24 mph69%29.95 "HgN/A
8:00 PM70 °FMild.23 mph69%29.95 "HgN/A
7:30 PM70 °FMild.21 mph64%29.95 "HgN/A
7:00 PM70 °FMild.17 mph64%29.95 "HgN/A
6:30 PM70 °FMild.17 mph64%29.95 "HgN/A
6:00 PM72 °FMild.16 mph61%29.92 "HgN/A
5:30 PM72 °FMild.21 mph61%29.92 "HgN/A
4:30 PM73 °FMild.23 mph57%29.89 "HgN/A
4:00 PM75 °FMild.26 mph54%29.92 "HgN/A
3:30 PM77 °FWarm.24 mph51%29.92 "Hg0 mi
3:00 PM77 °FBroken clouds.24 mph51%29.92 "Hg0 mi
2:30 PM77 °FBroken clouds.24 mph51%29.89 "Hg0 mi
2:00 PM79 °FBroken clouds.24 mph48%29.92 "Hg5 mi
1:30 PM79 °FBroken clouds.24 mph48%29.92 "Hg5 mi
1:00 PM79 °FBroken clouds.21 mph45%29.92 "Hg5 mi
Weather by CustomWeather, © 2014

See weather overviewHow to use our weather pages